Theta_e
315 317 318 319 318 320 320 320 321 321 316 315 318 318 319 312 310 312 310 309 307 305 303 306 308 315 319 320 321 320 321 322 322 323 323 322 323 322 321 319 318 317 316 316
315 317 318 319 318 319 319 319 319 319 315 314 317 318 318 316 312 311 311 309 307 304 303 305 308 315 317 318 319 320 320 320 321 322 322 322 320 319 317 313 312 312 312 312
319 319 316 317 316 317 317 318 319 319 316 314 316 318 318 318 312 309 309 308 306 304 303 303 307 312 317 317 317 318 318 320 321 320 319 317 313 309 308 308 306 306 305 305
316 317 314 315 316 315 318 318 316 317 316 320 317 322 322 319 311 308 307 306 305 304 303 302 305 308 311 315 317 317 318 318 316 314 311 308 307 306 305 304 303 302 302 302
317 313 313 315 316 315 317 315 315 316 317 318 320 318 321 317 313 310 307 305 304 303 302 301 301 304 306 308 308 308 308 307 307 307 306 305 304 303 302 301 300 299 297 296
315 312 314 315 314 314 314 314 314 315 317 322 321 321 322 319 314 313 308 305 304 303 301 299 301 302 303 304 305 305 305 304 304 304 303 302 302 301 299 297 296 295 294 294
316 315 314 313 314 312 314 317 323 323 320 323 317 322 321 320 313 314 308 305 304 302 300 298 300 300 301 302 302 302 302 302 302 301 300 299 298 298 297 296 295 294 294 293
320 321 317 313 317 319 314 318 325 328 327 324 311 318 319 313 311 309 308 305 304 301 299 298 299 299 300 300 300 300 300 300 299 299 298 297 297 296 296 295 294 293 292 292
322 323 314 314 315 317 317 318 319 319 312 318 318 315 315 308 306 306 307 305 304 301 299 298 298 298 299 299 299 298 298 297 297 297 296 296 295 295 294 294 293 292 291 291
320 323 313 310 309 311 315 315 317 317 324 325 322 320 319 311 309 306 307 305 303 301 299 298 298 298 298 297 297 297 296 296 296 295 295 295 294 293 292 292 291 290 289 289
318 318 314 309 311 315 312 314 316 317 320 327 326 321 316 317 312 308 307 305 303 301 299 298 298 298 298 297 297 296 295 295 295 294 294 293 293 292 291 290 290 289 289 289
317 318 322 319 313 312 315 315 316 318 319 317 320 321 308 313 313 309 307 305 303 302 300 299 298 298 297 297 297 296 295 295 294 294 293 292 291 291 290 290 289 289 289 289
315 316 321 320 314 309 310 312 314 316 317 321 322 322 308 308 310 310 308 305 304 303 301 299 298 298 298 297 297 296 296 295 294 293 292 291 290 290 290 289 289 289 289 289
314 316 320 325 322 316 313 312 312 314 318 319 319 319 309 309 309 308 308 306 304 303 301 299 298 299 298 297 297 296 296 295 293 292 291 290 290 289 289 289 289 289 289 288
315 315 317 318 319 318 315 314 313 313 314 318 318 318 318 311 310 308 307 306 304 303 302 300 299 298 298 297 296 296 296 295 294 292 291 290 289 289 289 289 289 289 288 288
311 315 315 317 317 318 319 315 315 313 313 314 316 317 318 314 310 308 307 305 304 303 302 301 299 298 298 298 298 298 297 297 295 293 291 290 289 289 289 289 289 288 288 288
309 311 314 318 316 316 312 313 314 315 314 315 315 315 307 308 307 307 306 305 304 303 302 301 299 298 298 299 299 299 299 297 296 293 291 290 289 289 289 288 288 288 288 288
307 309 311 316 312 317 316 311 311 314 315 313 312 309 309 307 307 307 307 307 305 303 302 301 299 298 298 298 299 299 299 297 296 294 292 290 289 289 288 288 288 288 288 288
304 309 314 316 315 314 313 304 307 312 314 313 311 306 301 304 306 305 307 306 304 303 302 302 301 300 300 299 299 299 297 296 296 295 293 291 289 288 288 288 288 288 288 287
299 302 310 309 315 317 311 303 303 307 313 306 307 304 299 299 305 308 304 303 304 303 303 302 302 300 299 298 296 294 294 294 295 295 293 291 289 288 288 289 288 288 288 287
302 304 308 311 313 313 308 297 299 311 315 302 305 302 299 303 306 304 303 302 300 299 298 298 299 299 296 293 293 292 293 293 294 294 292 291 290 290 289 288 288 288 288 287
308 308 309 310 312 313 296 294 305 303 296 300 304 302 300 301 300 299 300 298 296 295 294 293 293 292 292 292 292 292 292 292 292 292 291 290 290 289 289 288 288 288 287 287
307 308 312 310 310 294 295 295 297 296 297 298 301 303 303 300 297 295 296 295 293 292 292 292 292 292 292 291 291 291 291 291 290 290 290 290 290 289 289 288 288 287 286 286
297 294 301 303 297 296 293 301 301 302 298 296 297 298 300 299 294 294 293 292 292 293 292 292 292 291 291 291 290 290 290 290 290 290 290 289 289 289 288 288 287 286 286 285
296 295 297 295 292 293 295 299 301 300 295 294 295 295 295 294 293 293 292 292 292 292 291 291 291 291 291 290 290 290 290 290 290 289 289 289 289 288 288 287 286 285 285 283
293 295 298 300 295 298 298 299 298 295 294 293 293 293 293 294 294 293 292 292 292 292 291 291 291 290 290 290 290 290 290 290 289 289 289 288 288 287 286 285 285 284 284 283
Wind_Speed
11 9 15 19 17 18 11 12 14 11 4 4 14 16 12 17 15 15 13 11 10 8 7 9 11 12 13 15 17 17 18 18 16 17 17 17 15 12 11 9 7 4 2 2
4 16 19 15 10 16 16 16 17 15 4 4 13 19 16 16 21 20 17 15 13 11 9 12 14 16 18 19 20 21 22 24 21 19 17 15 15 13 9 9 9 8 5 4
18 8 7 13 10 12 16 18 15 16 1 11 13 21 23 21 14 13 16 16 15 15 15 14 16 17 20 21 21 21 20 19 18 16 16 15 17 18 17 15 12 10 8 6
16 21 7 10 16 14 17 15 15 14 8 10 4 11 10 15 14 16 20 20 19 18 16 16 18 19 21 22 22 22 21 21 21 20 20 20 19 18 16 14 11 9 7 6
6 8 12 17 16 13 8 2 7 11 13 16 18 9 8 5 14 19 23 24 23 22 20 20 20 23 24 25 24 24 23 23 21 19 16 15 15 16 14 12 10 8 6 5
17 3 10 11 2 10 10 6 2 3 8 13 18 17 14 13 14 16 23 26 26 24 22 20 24 25 25 26 25 24 22 21 19 18 16 15 14 14 12 10 7 6 5 4
18 18 6 6 6 4 13 8 4 5 6 8 2 14 17 5 6 11 24 32 31 28 26 25 28 26 26 26 24 23 21 20 20 19 18 15 13 11 10 7 5 4 3 2
15 10 24 18 24 12 17 18 7 7 8 7 2 10 7 2 10 6 24 31 31 30 28 28 28 28 28 27 25 23 22 21 19 17 16 15 13 12 9 7 6 4 3 2
10 10 2 8 11 16 10 15 15 5 2 4 7 8 5 7 7 9 25 31 33 33 31 32 30 29 29 28 27 24 22 20 19 19 17 16 13 11 10 9 7 6 4 2
2 7 4 5 3 8 8 10 7 7 6 8 9 13 10 11 15 15 20 29 31 31 31 31 32 32 30 28 25 24 23 22 19 18 17 16 15 13 11 9 8 6 3 1
9 4 4 6 12 18 7 10 10 8 9 4 4 7 10 14 18 22 20 31 35 36 36 37 37 35 32 30 28 27 25 23 21 20 18 17 16 14 12 10 8 6 3 1
12 3 8 18 4 14 20 15 21 7 6 9 7 10 2 2 13 21 25 30 33 37 37 37 38 37 34 33 31 29 27 25 23 22 21 20 18 15 13 11 8 6 4 4
12 5 3 4 7 4 10 15 17 20 1 16 8 8 2 4 7 19 23 28 32 33 33 34 35 39 39 36 34 32 29 26 26 25 23 22 19 17 15 12 10 8 6 7
18 6 10 17 6 11 11 19 22 16 10 23 19 12 4 9 12 16 21 25 31 35 36 36 36 41 41 38 36 33 30 29 28 27 26 25 22 19 17 14 11 10 11 11
14 10 18 25 24 11 9 16 24 25 34 17 35 23 13 15 15 22 24 23 27 31 35 38 40 41 40 39 36 33 31 30 30 29 29 29 24 22 19 17 15 15 15 15
4 8 13 20 25 24 22 12 25 32 33 31 33 25 10 19 16 17 24 26 29 32 38 40 38 36 39 41 39 35 31 30 32 32 32 29 26 24 22 19 18 18 18 19
9 7 7 15 12 17 7 31 21 25 30 22 28 31 4 5 8 16 20 25 29 33 38 37 39 40 42 43 41 34 29 31 33 33 31 29 29 26 24 22 21 22 22 23
6 8 5 5 3 10 11 6 18 30 24 23 17 3 2 7 17 16 13 21 28 29 28 30 32 33 38 39 32 31 31 32 32 31 30 30 29 27 26 25 25 25 26 27
5 6 4 5 10 12 16 4 7 13 24 21 15 8 9 12 12 14 25 24 23 25 27 29 30 30 29 29 29 30 29 28 29 29 30 29 28 29 28 27 27 27 28 28
0 3 4 4 5 8 4 4 4 7 12 7 13 12 10 16 7 10 25 20 19 18 18 18 18 20 22 24 24 22 22 23 25 28 27 26 27 27 27 26 26 26 27 28
4 3 11 10 6 5 1 6 7 7 3 3 20 22 22 11 10 10 18 21 18 17 17 16 18 21 20 19 18 18 19 21 19 21 22 22 22 24 25 26 27 26 26 27
11 10 6 6 5 10 9 6 8 2 3 11 17 21 25 15 13 14 20 22 21 21 20 18 17 16 15 16 16 17 17 16 18 20 21 21 23 25 28 29 29 29 28 29
5 5 4 5 1 3 8 3 4 2 2 4 11 16 17 18 14 19 24 24 23 19 17 13 11 12 15 18 19 18 17 18 20 21 22 25 26 28 30 31 31 31 30 30
4 3 1 3 3 4 2 5 3 2 6 6 9 13 17 20 19 23 25 23 20 17 14 13 12 13 17 19 19 18 18 20 21 24 26 28 30 31 32 32 32 31 31 31
2 7 6 3 1 3 7 10 10 15 13 9 12 13 16 18 21 21 22 20 17 15 14 14 13 16 20 20 19 21 23 25 26 27 28 30 30 31 31 32 31 31 31 31
6 4 5 2 14 8 12 20 19 22 20 14 15 15 14 13 15 18 20 18 17 15 15 16 18 19 23 23 24 26 28 29 29 29 30 30 29 29 29 30 31 32 33 33
Wind_Direction
203 218 222 227 228 251 280 284 263 267 104 263 243 253 232 202 213 220 218 214 208 199 208 195 178 163 149 144 140 139 140 139 147 152 152 157 158 156 153 147 147 153 157 174
188 230 240 246 272 239 246 254 257 268 156 249 268 264 257 205 216 220 220 211 200 188 174 175 172 165 156 151 148 147 148 144 147 154 158 166 157 156 158 146 143 138 138 142
228 237 241 223 222 226 238 246 253 258 339 241 272 269 252 237 215 218 222 209 197 185 169 168 167 166 162 160 157 156 159 162 162 164 163 162 150 140 136 131 125 116 107 95
250 244 196 200 229 216 248 234 249 262 253 262 170 282 273 211 210 214 211 200 190 178 168 163 162 161 162 162 162 162 162 162 158 152 148 146 146 144 136 132 124 114 106 96
214 183 203 223 226 203 252 71 225 243 254 270 254 267 273 192 221 212 205 199 188 180 173 164 162 161 158 155 154 152 151 151 152 152 152 151 147 140 135 130 126 124 113 93
260 30 219 221 186 200 132 118 111 255 260 256 240 230 259 210 227 202 193 193 184 178 173 169 168 162 160 158 158 158 159 159 159 157 153 152 152 147 138 129 124 113 99 76
228 223 195 174 153 160 197 183 246 241 210 256 314 215 249 199 186 205 184 186 183 179 177 176 173 168 164 162 161 159 161 163 161 162 161 159 156 153 150 149 154 148 130 88
214 227 202 201 215 199 200 200 200 241 236 267 24 236 240 313 121 163 184 183 181 181 181 182 179 175 171 168 167 168 170 172 170 171 172 170 170 170 169 173 173 162 152 144
207 241 261 182 223 215 179 224 229 312 146 274 216 250 242 165 179 180 176 180 183 183 184 185 184 181 178 177 175 176 178 181 181 181 181 180 180 180 181 181 180 181 189 191
241 265 161 154 187 262 222 172 184 212 226 237 242 241 236 209 197 185 182 186 184 184 186 186 188 187 187 185 183 184 185 187 188 189 189 188 188 188 188 187 191 190 181 174
223 219 143 143 202 190 185 212 220 215 224 250 279 246 194 201 190 188 187 186 185 187 187 189 192 192 191 191 191 191 192 193 193 197 198 197 195 195 193 194 196 200 208 284
196 173 235 230 214 235 223 215 206 208 196 232 274 257 102 106 183 180 185 188 190 191 189 190 195 197 195 196 197 200 199 199 201 204 203 204 205 200 202 204 206 217 240 292
160 194 202 251 213 189 226 216 228 230 310 231 203 249 101 129 159 182 185 187 190 190 190 191 194 200 202 201 202 204 205 205 207 210 209 210 209 210 212 214 220 237 261 294
158 157 207 229 229 153 201 207 208 217 228 240 235 250 177 206 187 181 186 188 187 188 191 193 197 203 206 204 206 207 208 210 212 214 214 217 217 217 220 224 233 250 266 279
175 220 218 243 255 251 199 204 203 207 226 214 245 237 219 202 195 193 182 178 185 190 193 197 199 203 206 208 209 209 212 215 218 219 218 221 219 221 226 233 242 253 263 273
195 233 224 249 246 244 252 244 215 215 228 230 246 250 237 199 192 167 178 178 187 193 198 200 201 201 206 211 212 212 216 222 223 223 223 224 223 226 232 239 248 257 265 272
186 211 209 246 239 252 257 231 233 233 227 228 236 243 107 122 176 192 182 184 194 201 203 200 201 206 210 214 215 216 224 228 228 227 227 227 229 231 237 244 253 263 269 272
179 196 222 261 94 227 247 241 232 231 238 227 242 168 114 164 172 214 220 229 221 208 202 201 202 204 217 221 224 225 231 233 234 230 230 231 233 235 240 248 257 264 270 274
216 188 212 224 225 287 287 194 182 194 242 231 226 147 117 116 175 226 227 227 219 217 212 212 216 219 223 219 219 225 231 233 234 232 232 233 235 237 244 253 261 267 272 274
169 293 221 156 233 234 332 100 119 100 260 182 167 163 137 134 199 231 219 206 200 192 192 197 205 204 200 207 214 221 226 231 232 229 230 233 236 240 250 258 263 267 271 273
155 196 226 224 234 261 172 147 150 166 277 131 170 163 157 180 208 188 185 187 191 192 191 190 189 198 204 208 215 221 227 232 234 228 231 236 241 246 253 256 257 262 268 273
176 176 197 213 227 248 144 121 189 335 88 158 169 175 178 177 179 168 178 181 176 174 172 174 181 191 203 214 221 224 226 225 226 231 236 240 247 254 256 256 258 261 266 270
201 216 188 215 213 337 169 17 195 69 144 174 186 198 200 192 183 177 173 171 171 172 174 181 192 204 215 220 223 221 224 227 233 237 243 249 255 257 259 258 259 259 263 268
224 185 208 155 19 352 249 43 110 209 244 241 219 202 193 189 180 171 169 170 174 180 186 189 195 211 220 220 226 230 232 238 243 248 253 257 259 259 259 259 259 259 264 268
85 157 137 86 22 102 227 233 217 230 238 212 197 197 189 184 178 182 180 182 188 192 197 210 227 235 228 225 234 235 241 246 250 256 260 260 261 261 260 259 259 262 265 267
189 158 170 172 180 169 202 202 215 221 227 205 183 174 185 197 202 202 197 198 200 207 216 230 237 240 232 233 238 242 247 251 255 259 261 261 260 260 258 259 261 265 269 272